Flight Track Log - Related Links

Times and Time Zones

All times are in EDT time to prevent confusion due to time zone crossing. See the N28JK flight status page for this flight to view local times or setup timezone preferences in your user account.

Time Position Orientation Groundspeed Altitude Reporting Facility
EDT Latitude Longitude Course Direction KTS MPH feet Rate Location/Type
Mon 04:51:01 PM 43.5808 -70.4222 235° Southwest 150 173 6,600  Level Boston Center
Mon 04:52:02 PM 43.5611 -70.4744 242° Southwest 150 173 8,500 2,066 Climbing Boston Center
Mon 04:53:03 PM 43.5389 -70.5239 238° Southwest 155 178 10,800 2,083 Climbing Boston Center
Mon 04:54:03 PM 43.5189 -70.5733 241° Southwest 155 178 12,700 2,050 Climbing Boston Center
Mon 04:55:00 PM 43.5231 -70.5404 235° Southwest  Level Estimated
Mon 04:55:03 PM 43.4989 -70.6225 241° Southwest 155 178 14,900  Level Boston Center
Mon 04:56:03 PM 43.4808 -70.6689 242° Southwest 155 178 16,500 814 Climbing Boston Center
Mon 04:57:01 PM 43.4525 -70.7356 240° Southwest 182 209 16,500  Level Boston Center
Mon 04:58:01 PM 43.4244 -70.8019 240° Southwest 196 226 16,500  Level Boston Center
Mon 04:59:02 PM 43.3961 -70.8714 241° Southwest 210 242 16,500  Level Boston Center
Mon 05:00:03 PM 43.3681 -70.9378 240° Southwest 210 242 16,500  Level Boston Center
Mon 05:01:03 PM 43.3375 -71.0072 239° Southwest 204 235 16,500  Level Boston Center
Mon 05:02:01 PM 43.3133 -71.0703 242° Southwest 204 235 16,500  Level Boston Center
Mon 05:03:01 PM 43.2808 -71.1453 239° Southwest 204 235 16,500  Level Boston Center
Mon 05:04:02 PM 43.2567 -71.2058 241° Southwest 204 235 16,500 50 Level Boston Center
Mon 05:05:02 PM 43.2281 -71.2803 242° Southwest 204 235 16,600  Climbing Boston Center
Mon 05:06:03 PM 43.1975 -71.3522 240° Southwest 204 235 16,500 -50 Descending Boston Center
Mon 05:07:01 PM 43.1731 -71.4094 240° Southwest 204 235 16,500  Level Boston Center
Mon 05:08:02 PM 43.1403 -71.4842 239° Southwest 204 235 16,500  Level Boston Center
Mon 05:09:04 PM 43.1139 -71.5442 239° Southwest 204 235 16,500  Level Boston Center
Mon 05:10:01 PM 43.0811 -71.6186 239° Southwest 204 235 16,500 51 Level Boston Center
Mon 05:11:01 PM 43.0564 -71.6814 242° Southwest 204 235 16,600 49 Climbing Boston Center
Mon 05:12:03 PM 43.0256 -71.7556 240° Southwest 204 235 16,600  Level Boston Center
Mon 05:13:03 PM 42.9947 -71.8128 234° Southwest 211 243 16,600  Level Boston Center
Mon 05:14:03 PM 42.9533 -71.8811 230° Southwest 222 255 16,600  Level Boston Center
Mon 05:15:01 PM 42.9183 -71.9356 229° Southwest 222 255 16,600  Level Boston Center
Mon 05:16:02 PM 42.8789 -72.0008 231° Southwest 222 255 16,600  Level Boston Center
Mon 05:17:03 PM 42.8436 -72.0578 230° Southwest 217 250 16,600  Level Boston Center
Mon 05:18:03 PM 42.8022 -72.1261 230° Southwest 217 250 16,600  Level Boston Center
Mon 05:19:01 PM 42.7689 -72.1828 231° Southwest 211 243 16,600  Level Boston Center
Mon 05:20:02 PM 42.7275 -72.2536 232° Southwest 211 243 16,600  Level Boston Center
Mon 05:21:03 PM 42.6942 -72.3072 230° Southwest 211 243 16,600  Level Boston Center
Mon 05:22:03 PM 42.6567 -72.3694 231° Southwest 211 243 16,600  Level Boston Center
Mon 05:23:03 PM 42.6192 -72.4289 229° Southwest 211 243 16,600  Level Boston Center
Mon 05:24:01 PM 42.5817 -72.4936 232° Southwest 211 243 16,600  Level Boston Center
Mon 05:25:01 PM 42.5419 -72.5556 229° Southwest 211 243 16,600  Level Boston Center
Mon 05:26:03 PM 42.5025 -72.6203 230° Southwest 211 243 16,600  Level Boston Center
Mon 05:27:03 PM 42.4586 -72.6878 229° Southwest 211 243 16,600  Level Boston Center
Mon 05:28:01 PM 42.4250 -72.7439 231° Southwest 216 249 16,600  Level Boston Center
Mon 05:29:02 PM 42.3811 -72.8139 230° Southwest 221 254 16,600  Level Boston Center
Mon 05:30:03 PM 42.3475 -72.8700 231° Southwest 226 260 16,600  Level Boston Center
Mon 05:31:01 PM 42.3033 -72.9425 231° Southwest 226 260 16,600  Level Boston Center
Mon 05:32:02 PM 42.2656 -72.9983 228° Southwest 226 260 16,600  Level Boston Center
Mon 05:33:02 PM 42.2236 -73.0681 231° Southwest 226 260 16,600  Level Boston Center
Mon 05:34:03 PM 42.1878 -73.1267 230° Southwest 226 260 16,600  Level Boston Center
Mon 05:35:01 PM 42.1436 -73.1933 228° Southwest 226 260 16,600  Level Boston Center
Mon 05:36:02 PM 42.1100 -73.2517 232° Southwest 226 260 16,600  Level Boston Center
Mon 05:37:03 PM 42.0656 -73.3183 228° Southwest 226 260 16,600  Level Boston Center
Mon 05:38:03 PM 42.0256 -73.3847 231° Southwest 226 260 16,600  Level Boston Center
Mon 05:39:03 PM 41.9853 -73.4456 228° Southwest 226 260 16,600  Level Boston Center
Mon 05:40:01 PM 41.9431 -73.5119 229° Southwest 226 260 16,600  Level Boston Center
Mon 05:41:01 PM 41.9050 -73.5725 230° Southwest 226 260 16,600  Level Boston Center
Mon 05:42:03 PM 41.8647 -73.6361 230° Southwest 226 260 16,600  Level Boston Center
Mon 05:43:04 PM 41.8244 -73.6964 228° Southwest 226 260 16,600  Level Boston Center
Mon 05:44:01 PM 41.7906 -73.7542 232° Southwest 226 260 16,600  Level Boston Center
Mon 05:45:02 PM 41.7439 -73.8203 227° Southwest 226 260 16,600  Level Boston Center
Mon 05:46:04 PM 41.7097 -73.8750 230° Southwest 226 260 16,600  Level Boston Center
Mon 05:47:02 PM 41.6650 -73.9433 229° Southwest 226 260 16,600  Level Boston Center
Mon 05:48:02 PM 41.6289 -74.0008 230° Southwest 226 260 16,600  Level Boston Center
Mon 05:49:03 PM 41.5864 -74.0664 229° Southwest 226 260 16,600  Level Boston Center
Mon 05:50:01 PM 41.5458 -74.1292 229° Southwest 226 260 16,600 -254 Level Boston Center
Mon 05:51:01 PM 41.5094 -74.1864 230° Southwest 232 267 16,100 -722 Descending Boston Center
Mon 05:52:39 PM 41.4333 -74.2833 224° Southwest 217 250 14,700 -873 Descending New York TRACON
Mon 05:53:39 PM 41.4000 -74.3500 236° Southwest 219 252 13,800 -900 Descending New York TRACON
Mon 05:54:39 PM 41.3500 -74.4000 217° Southwest 215 247 12,900 -950 Descending New York TRACON
Mon 05:55:39 PM 41.3167 -74.4667 236° Southwest 211 243 11,900 -950 Descending New York TRACON
Mon 05:56:39 PM 41.2833 -74.5167 228° Southwest 208 239 11,000 -912 Descending New York TRACON
Mon 05:57:44 PM 41.2333 -74.5833 225° Southwest 214 246 10,000 -960 Descending New York TRACON
Mon 05:58:44 PM 41.2000 -74.6333 228° Southwest 210 242 9,000 -1,100 Descending New York TRACON
Mon 05:59:44 PM 41.1500 -74.7000 225° Southwest 203 234 7,800 -1,252 Descending New York TRACON
Mon 06:00:39 PM 41.1167 -74.7500 229° Southwest 199 229 6,600 -1,252 Descending New York TRACON
Mon 06:01:39 PM 41.0833 -74.8000 229° Southwest 205 236 5,400 -1,200 Descending New York TRACON
Mon 06:03:00 PM 41.0395 -74.8771 217° Southwest  Level FlightAware Approximate
Mon 06:10:00 PM 40.9667 -74.9833 229° Southwest  Level FlightAware Approximate
Mon 06:11:00 PM 40.9711 -74.9975 229° Southwest  Level Estimated
Mon 06:12:00 PM 40.9711 -74.9975 229° Southwest  Level Estimated
Mon 06:13:00 PM 40.9711 -74.9975 229° Southwest  Level Estimated

Login

Don't have an account? Register now (free) for customized features, flight alerts, and more!